CZ-6A DEB, 55237

Orbit data source: Space-Track

CZ-6A DEB, 55237 is space debris in SSO originally from a launch on Fri, 11 Nov 2022 UTC launched from the Taiyaun Space Center, China (TSC). Debris objects in space refer to the collection of defunct objects orbiting the Earth. Examples of debris include non-operational satellites, rocket bodies, and fragments generated from explosions, collisions, or faulty payload assembly.

Loading next visibility...
Identifier
55237, 2022-151XE
Orbit
SSO
Country
Flag of CNCN / PRC
Related business
Manufacturer
SAST
Mission
Spacecraft
Bus & Motor
Unknown
Mass
Unknown
Launch date (UTC)
2022-11-11 (3 years ago)
Launch vehicle
Unknown
Launch site
Taiyaun Space Center, China (TSC)
Object type
Payload
Rocket body
Debris
Shape & HBR
Unknown shape, 0.1 m
Radar Cross Section
Small (<0.1 m²)

Expand to show TLE details & history
Last TLE update: 18 hours ago

TLE from 18 hours ago
0 CZ-6A DEB
1 55237U 22151XE  26130.21920784  .00001656  00000-0  33824-3 0  9999
2 55237  98.7595 220.3576 0104842  17.6497 342.8300 14.58990478183743
Epoch: 2026-05-10T05:15Z
TLE epoch observation values (Epoch: 2026-05-10T05:15:39.557Z)
Latitude
0.00003°
Longitude
-86.58266°
Altitude
628.59 km
Speed
7.582 km/s
True Right ascension
14h 41m 25s
True Declination
0° 00' 00"
Sunlit
Object was in full shadow at epoch
Visualization orbit readout
Latitude
Unknown
Longitude
Unknown
Altitude
Unknown
Speed
Unknown
Apparent Right ascension
Unknown
Apparent Declination
Unknown
Sunlit
N/A
Visualization observer readout
Local Sidereal Time
07:23:17
Azimuth
Unknown
Elevation
Unknown
Doppler factor
Unknown
Orbital elements
Apogee altitude
767.685 km
Perigee altitude
619.403 km
Semi-major axis
7,071.681 km
Eccentricity
0.01048
Inclination
98.7595°
RAAN
220.3576°
Arg. of periapsis
17.6497°
True anomaly
342.47084°
Mean anomaly
342.83°
Eccentric anomaly
342.65088°
Mean motion
3.64972 °/min
Orbital period
98.64 mins
BSTAR
0.00033824
Loading maneuver chart data...
Computing Atmospheric mass density...
Loading historical data...
Loading historical data...
Loading historical data...
Loading historical data...
Loading historical data...
Loading historical data...
Loading historical data...

Documentation

Showing up to 5 results
|